Location: Unspecified
(0.0000°N, 0.0000°E)
Time: 05:03:30
(UTC+00:00)

deb NOAA 5 - Pass Details

Date: 17 February 2026
Orbit: 749 x 1047 km, 102.9° (Epoch: 11 March)

Event Time Altitude Azimuth Distance (km) Brightness Sun altitude
Rises 04:53:33 0° 125° (SE) 3,409 ? -19.7°
Reaches altitude 10° 04:57:05 10° 101° (E) 2,535 ? -18.8°
Maximum altitude 04:59:53 14° 71° (ENE) 2,302 ? -18.1°
Drops below altitude 10° 05:02:46 10° 41° (NE) 2,634 ? -17.4°
Sets 05:06:33 0° 17° (NNE) 3,641 ? -16.5°
